Location: O'Brien
(30.0517°N, 82.9900°W)
Time: 17:12:24
(UTC-05:00)

LightSail 2 - Visible Passes

Search period start: 21 November 2019 00:00
Search period end: 01 December 2019 00:00
Orbit: 698 x 729 km, 24.0° (Epoch: 21 November)

Date Brightness Start Highest point End Pass type
(mag) Time Alt. Az. Time Alt. Az. Time Alt. Az.
21 Nov 7.6 04:21:05 15° SSE 04:21:05 15° SSE 04:22:15 10° SE visible
22 Nov 7.4 05:05:49 13° SSW 05:05:49 13° SSW 05:07:33 10° S visible
25 Nov 7.5 19:55:33 10° SSW 19:56:42 14° S 19:56:42 14° S visible
26 Nov 7.3 18:58:47 10° S 19:01:01 13° SSE 19:02:25 12° SE visible
27 Nov 6.9 19:44:06 10° SW 19:47:06 22° S 19:47:06 22° S visible
28 Nov 6.9 18:46:45 10° SSW 18:50:25 20° SSE 18:52:46 15° SE visible
28 Nov 7.8 20:30:49 10° WSW 20:31:45 15° SW 20:31:45 15° SW visible
29 Nov 6.3 19:33:07 10° SW 19:37:25 32° S 19:37:25 32° S visible
30 Nov 6.6 18:35:29 10° SW 18:39:49 27° SSE 18:43:04 15° ESE visible
30 Nov 7.3 20:20:11 10° WSW 20:22:03 21° SW 20:22:03 21° SW visible
